Location: Alafon
(8.4500°N, 4.2333°E)
Time: 23:21:18
(UTC+00:00)

Vanguard 2 - Pass Details

Date: 10 August 2021
Orbit: 553 x 2937 km, 32.9° (Epoch: 26 September)

Event Time Altitude Azimuth Distance (km) Brightness Sun altitude
Rises 18:03:04 0° 210° (SSW) 6,773 12.5 -1.3°
Reaches altitude 10° 18:10:23 10° 193° (SSW) 5,590 11.9 -3.0°
Maximum altitude 18:19:53 18° 157° (SSE) 4,507 11.1 -5.3°
Drops below altitude 10° 18:27:44 10° 121° (ESE) 4,542 10.8 -7.1°
Enters shadow 18:29:01 - 115° (ESE) 4,653 10.8 -7.4°
Sets 18:32:33 0° 102° (ESE) 5,097 - -8.3°
